Weather History for PASY - February, 2014

Change the Weather History Date:

Wednesday, February 12, 2014

  Actual Average Record
Temperature  
Mean Temperature 36 °F -  
Max Temperature 39 °F 33 °F 41 °F (1982)
Min Temperature 33 °F 28 °F 14 °F (1980)
Degree Days  
Heating Degree Days 29    
Moisture  
Dew Point 35 °F    
Average Humidity 93    
Maximum Humidity 100    
Minimum Humidity 79    
Precipitation  
Precipitation 0.00 in - - ()
Sea Level Pressure  
Sea Level Pressure 30.35 in    
Wind  
Wind Speed 16 mph (WNW)    
Max Wind Speed 26 mph    
Max Gust Speed 33 mph    
Visibility 7 miles    
Events      
Averages and records for this station are not official NWS values.
T = Trace of Precipitation, MM = Missing Value Source: NWS Daily Summary

Daily Weather History Graph

Daily Weather History Graph

Search for Another Location

Airport or City:

Trip Planner

Search our weather history database for the weather conditions in past years. The results will help you decide how hot, cold, wet, or windy it might be!

Date:

Astronomy

Feb. 11, 2014 Rise Set
Actual Time 9:47 AM HST 7:28 PM HST
Civil Twilight 9:11 AM HST 8:04 PM HST
Nautical Twilight 8:31 AM HST 8:45 PM HST
Astronomical Twilight 7:51 AM HST 9:25 PM HST
Moon 5:54 PM HST (2/12) 8:18 AM HST (2/12)
Length of Visible Light 10h 53m
Length of Day
9h 41m
Waxing Gibbous, 96% of the Moon is Illuminated
Feb 12
Waxing Gibbous
Feb 14
Full
Feb 22
Last Quarter
Feb 28
New
Mar 8
First Quarter

Hourly Weather History & Observations

Time (HST) Temp. Windchill Dew Point Humidity Pressure Visibility Wind Dir Wind Speed Gust Speed Precip Events Conditions
12:10 AM 37.4 °F 27.8 °F 37.4 °F 100% 30.45 in 10.0 mi SW 17.3 mph - N/A   Overcast
12:33 AM 37.4 °F 28.5 °F 37.4 °F 100% 30.44 in 4.0 mi SW 15.0 mph - N/A   Overcast
12:45 AM 37.4 °F 28.5 °F 37.4 °F 100% 30.43 in 4.0 mi SW 15.0 mph - N/A   Overcast
12:56 AM 39.0 °F 31.0 °F 37.0 °F 93% 30.43 in 7.0 mi SW 13.8 mph - N/A   Overcast
1:56 AM 37.9 °F 27.9 °F 37.0 °F 97% 30.40 in 9.0 mi WSW 19.6 mph - N/A   Overcast
2:08 AM 37.4 °F 27.2 °F 37.4 °F 100% 30.41 in 5.0 mi WSW 19.6 mph - N/A   Overcast
2:18 AM 37.4 °F 28.2 °F 37.4 °F 100% 30.41 in 1.8 mi WSW 16.1 mph - N/A   Overcast
2:26 AM 37.4 °F 27.5 °F 37.4 °F 100% 30.41 in 1.5 mi WSW 18.4 mph - N/A   Overcast
2:30 AM 37.4 °F 27.5 °F 37.4 °F 100% 30.41 in - WSW 18.4 mph - N/A   Overcast
2:40 AM 37.4 °F 27.5 °F 37.4 °F 100% 30.41 in 4.0 mi WSW 18.4 mph - N/A   Overcast
2:56 AM 37.9 °F 29.2 °F 37.9 °F 100% 30.41 in 9.0 mi West 15.0 mph - N/A   Overcast
3:14 AM 37.4 °F 27.5 °F 37.4 °F 100% 30.40 in 1.8 mi WSW 18.4 mph - N/A   Overcast
3:19 AM 37.4 °F 27.8 °F 37.4 °F 100% 30.40 in 1.2 mi West 17.3 mph - N/A   Overcast
3:33 AM 37.4 °F 28.2 °F 37.4 °F 100% 30.40 in 1.0 mi West 16.1 mph - N/A   Mist
3:40 AM 37.4 °F 27.8 °F 37.4 °F 100% 30.39 in 1.2 mi West 17.3 mph - N/A   Overcast
3:47 AM 37.4 °F 28.5 °F 37.4 °F 100% 30.39 in 1.8 mi WSW 15.0 mph - N/A   Overcast
3:56 AM 37.9 °F 28.9 °F 37.9 °F 100% 30.39 in 2.5 mi West 16.1 mph - N/A   Overcast
4:06 AM 37.4 °F 28.9 °F 37.4 °F 100% 30.39 in 1.5 mi West 13.8 mph - N/A   Overcast
4:14 AM 37.4 °F 28.5 °F 37.4 °F 100% 30.39 in 1.0 mi West 15.0 mph - N/A   Mist
4:43 AM 37.4 °F 28.9 °F 37.4 °F 100% 30.38 in 0.8 mi West 13.8 mph - N/A   Mist
4:56 AM 37.9 °F 29.6 °F 37.9 °F 100% 30.38 in 0.8 mi West 13.8 mph - N/A   Mist
5:34 AM 37.4 °F 28.2 °F 37.4 °F 100% 30.37 in 1.2 mi West 16.1 mph - N/A   Overcast
5:39 AM 37.4 °F 28.2 °F 37.4 °F 100% 30.37 in 1.8 mi West 16.1 mph - N/A   Overcast
5:42 AM 37.4 °F 27.8 °F 37.4 °F 100% 30.37 in - West 17.3 mph - N/A   Overcast
5:56 AM 37.9 °F 29.2 °F 37.0 °F 97% 30.36 in 2.5 mi West 15.0 mph - N/A   Overcast
5:59 AM 37.4 °F 28.5 °F 37.4 °F 100% 30.36 in 1.5 mi West 15.0 mph - N/A   Overcast
6:08 AM 37.4 °F 28.5 °F 37.4 °F 100% 30.35 in - West 15.0 mph - N/A   Overcast
6:16 AM 37.4 °F 28.2 °F 37.4 °F 100% 30.35 in 6.0 mi West 16.1 mph - N/A   Overcast
6:27 AM 37.4 °F 28.2 °F 37.4 °F 100% 30.36 in 1.8 mi West 16.1 mph - N/A   Overcast
6:40 AM 37.4 °F 28.9 °F 37.4 °F 100% 30.36 in - WNW 13.8 mph - N/A   Overcast
6:56 AM 37.9 °F 29.6 °F 37.0 °F 97% 30.36 in 2.5 mi WNW 13.8 mph - N/A   Overcast
7:11 AM 37.4 °F 29.3 °F 37.4 °F 100% 30.36 in 4.0 mi WNW 12.7 mph - N/A   Overcast
7:56 AM 37.9 °F 32.7 °F 37.0 °F 97% 30.35 in 4.0 mi WNW 6.9 mph - N/A   Overcast
8:24 AM 37.4 °F 30.3 °F 35.6 °F 93% 30.35 in 6.0 mi West 10.4 mph - N/A   Overcast
8:56 AM 37.0 °F 29.3 °F 36.0 °F 96% 30.34 in 5.0 mi NW 11.5 mph - N/A   Overcast
9:51 AM 37.4 °F 29.8 °F 35.6 °F 93% 30.34 in 6.2 mi WNW 11.5 mph - N/A   Overcast
9:56 AM 37.0 °F 28.9 °F 35.1 °F 93% 30.34 in 8.0 mi WNW 12.7 mph - N/A   Overcast
10:11 AM 37.4 °F 30.8 °F 35.6 °F 93% 30.35 in 10.0 mi WNW 9.2 mph - N/A   Overcast
10:56 AM 37.0 °F 30.4 °F 36.0 °F 96% 30.34 in 8.0 mi WNW 9.2 mph - N/A   Overcast
11:04 AM 37.4 °F 29.3 °F 35.6 °F 93% 30.34 in 10.0 mi WNW 12.7 mph - N/A   Overcast
11:18 AM 37.4 °F 29.3 °F 35.6 °F 93% 30.33 in 10.0 mi WNW 12.7 mph - N/A   Overcast
11:56 AM 37.0 °F 28.5 °F 35.1 °F 93% 30.33 in 10.0 mi West 13.8 mph - N/A   Overcast
12:56 PM 37.9 °F 31.5 °F 35.1 °F 89% 30.33 in 10.0 mi WNW 9.2 mph - N/A   Overcast
1:56 PM 37.9 °F 32.7 °F 35.1 °F 89% 30.32 in 10.0 mi West 6.9 mph - N/A   Overcast
2:56 PM 37.0 °F 26.2 °F 33.1 °F 86% 30.29 in 10.0 mi NW 21.9 mph - N/A   Overcast
3:41 PM 35.6 °F 23.4 °F 32.0 °F 87% 30.28 in 10.0 mi NW 25.3 mph - N/A   Overcast
3:56 PM 36.0 °F 24.7 °F 32.0 °F 86% 30.29 in 10.0 mi NW 21.9 mph - N/A   Overcast
4:51 PM 35.6 °F 24.2 °F 32.0 °F 87% 30.28 in 10.0 mi NW 21.9 mph - N/A   Overcast
4:56 PM 36.0 °F 23.7 °F 32.0 °F 86% 30.28 in 10.0 mi NW 26.5 mph - N/A   Mostly Cloudy
5:56 PM 35.1 °F 22.7 °F 30.0 °F 82% 30.29 in 10.0 mi NW 25.3 mph 33.4 mph N/A   Mostly Cloudy
6:39 PM 35.6 °F 24.2 °F 30.2 °F 81% 30.28 in 10.0 mi NW 21.9 mph 31.1 mph N/A   Overcast
6:56 PM 35.1 °F 23.8 °F 30.9 °F 85% 30.28 in 10.0 mi NW 20.7 mph - N/A   Overcast
7:56 PM 34.0 °F 23.0 °F 30.9 °F 89% 30.30 in 10.0 mi NW 18.4 mph - N/A   Overcast
8:32 PM 33.8 °F 21.9 °F 30.2 °F 87% 30.30 in 10.0 mi NNW 21.9 mph 27.6 mph N/A   Overcast
8:52 PM 33.8 °F 22.2 °F 30.2 °F 87% 30.30 in 10.0 mi NW 20.7 mph - N/A   Overcast
8:56 PM 34.0 °F 21.5 °F 30.0 °F 85% 30.30 in 10.0 mi NNW 24.2 mph 27.6 mph N/A   Overcast
9:03 PM 33.8 °F 22.5 °F 30.2 °F 87% 30.30 in 10.0 mi NNW 19.6 mph 27.6 mph N/A   Overcast
9:21 PM 33.8 °F 22.8 °F 30.2 °F 87% 30.30 in 10.0 mi NNW 18.4 mph 25.3 mph N/A   Overcast
9:35 PM 33.8 °F 22.8 °F 28.4 °F 81% 30.30 in 10.0 mi NNW 18.4 mph - N/A   Overcast
9:42 PM 33.8 °F 23.2 °F 28.4 °F 81% 30.30 in 10.0 mi NNW 17.3 mph - N/A   Overcast
9:56 PM 34.0 °F 23.0 °F 28.9 °F 82% 30.30 in 10.0 mi NNW 18.4 mph - N/A   Overcast
10:49 PM 33.8 °F 22.5 °F 28.4 °F 81% 30.30 in 10.0 mi NNW 19.6 mph - N/A   Scattered Clouds
10:56 PM 34.0 °F 22.7 °F 28.9 °F 82% 30.30 in 10.0 mi NNW 19.6 mph - N/A   Mostly Cloudy
11:35 PM 33.8 °F 22.5 °F 28.4 °F 81% 30.30 in 10.0 mi NNW 19.6 mph - N/A   Mostly Cloudy
11:42 PM 33.8 °F 22.8 °F 28.4 °F 81% 30.30 in 10.0 mi NNW 18.4 mph - N/A   Scattered Clouds
11:56 PM 34.0 °F 23.8 °F 28.0 °F 79% 30.31 in 10.0 mi NNW 16.1 mph - N/A   Scattered Clouds